Showing default

YAOGAN-31 B, 43276

Orbit data source: Space-Track

YAOGAN-31 B, 43276 is a payload satellite owned by PLA SSF (CN) in LEO that was launched on Tue, 10 Apr 2018 UTC via a CHANG ZHENG 4C launch vehicle from the Jiuquan Satellite Launch Center, China (JSC). Payload-class satellites include a variety of spacecraft equipped with specific instruments for various scientific and technological missions. These include communications satellites like Starlink; space stations such as the ISS; scientific satellites like the Hubble; Earth observation satellites from companies like Planet Labs, Umbra, and HawkEye 360; GPS; miniature CubeSats for education and research; and military/defense satellites.

Loading next visibility...
Identifier
43276, 2018-034B
Orbit
LEO
Country
Flag of CNCN / PRC
Related business
Manufacturer
DFH
Mission
Operational Defense Sigint
Bus & Motor
Unknown
Mass
~500 kg wet, ~500 kg dry
Launch date (UTC)
2018-04-10 (8 years ago)
Launch vehicle
CHANG ZHENG 4C
Launch site
Jiuquan Satellite Launch Center, China (JSC)
Object type
Payload
Rocket body
Debris
Shape & HBR
Box + 2 Pan, 0.5 m
Radar Cross Section
0.446 m², Large (>1 m²)

Expand to show TLE details & history
Last TLE update: 5 hours ago

TLE from 5 hours ago
0 YAOGAN-31 B
1 43276U 18034B   26123.61837978 -.00000071  00000-0  25637-4 0  9997
2 43276  63.3956 205.9622 0271479   7.2420 353.2405 13.45452981396223
Epoch: 2026-05-03T14:50Z
TLE epoch observation values (Epoch: 2026-05-03T14:50:28.012Z)
Latitude
-0.00004°
Longitude
121.82611°
Altitude
889.553 km
Speed
7.507 km/s
True Right ascension
13h 43m 50s
True Declination
0° 00' 00"
Sunlit
Object was in full shadow at epoch
Visualization orbit readout
Latitude
Unknown
Longitude
Unknown
Altitude
Unknown
Speed
Unknown
Apparent Right ascension
Unknown
Apparent Declination
Unknown
Sunlit
N/A
Visualization observer readout
Local Sidereal Time
03:48:44
Azimuth
Unknown
Elevation
Unknown
Doppler factor
Unknown
Orbital elements
Apogee altitude
1,290.55 km
Perigee altitude
885.177 km
Semi-major axis
7,466.001 km
Eccentricity
0.02715
Inclination
63.3956°
RAAN
205.9622°
Arg. of periapsis
7.242°
True anomaly
352.86159°
Mean anomaly
353.2405°
Eccentric anomaly
353.05235°
Mean motion
3.36443 °/min
Orbital period
107 mins
BSTAR
0.000025637
Loading maneuver chart data...
Computing Atmospheric mass density...
Loading historical data...
Loading historical data...
Loading historical data...
Loading historical data...
Loading historical data...
Loading historical data...
Loading historical data...

Documentation

Showing up to 5 results
|